[[{"header":{"parameterUnit":"m.s-1","parameterCategory":1,"la1":30.2991,"la2":30.254,"lo1":-89.0895,"lo2":-89.0444,"dy":0.0017,"dx":0.0017,"nx":28,"ny":28,"refTime":"2024-06-17T03:00:00:Z","depth":0,"parameterNumber":2,"parameterNumberName":"U-component_of_WINDS"},"data":[0,0,0,0,0,0,0,0,0,0,0,0,0,0,0,0,0,0,0,0,0,0,0,0,0,0,0,0,0,0,0,0,0,0,0,0,0,0,0,0,0,0,0,0,0,0,0,0,0,0,0,0,0,0,0,0,0,0,-6.9584,-6.9585,0,-6.9671,-6.9672,-6.9673,-6.9563,-6.9559,-6.9555,-6.9552,-6.9637,-6.9643,-6.9649,0,0,0,0,0,0,0,0,0,0,0,0,0,-6.932,-6.9325,-6.9584,-6.9585,-6.9586,-6.9671,-6.9672,-6.9673,-6.9564,-6.9559,-6.9554,-6.955,-6.9635,-6.9642,-6.965,0,0,0,0,0,0,0,0,0,0,0,0,0,-6.9423,-6.9327,-6.9584,-6.9542,-6.9539,-6.9671,-6.9672,-6.9674,-6.9565,-6.9559,-6.9553,-6.9547,-6.9633,-6.9642,-6.9651,-6.9827,0,0,-6.9678,-6.9682,0,0,0,0,0,0,0,0,-6.9418,-6.9433,-6.9547,-6.9545,-6.9542,-6.96,-6.961,-6.9725,-6.9567,-6.9555,-6.9551,-6.9545,-6.963,-6.9639,-6.9668,-6.9831,-6.9834,-6.9679,-6.9685,-6.9688,-6.9691,0,0,0,0,0,0,0,-6.9411,-6.9429,-6.9618,-6.9549,-6.9546,-6.9518,-6.9526,-6.9631,-6.9625,-6.9556,-6.9548,-6.956,-6.9627,-6.966,-6.9669,-6.9835,-6.9679,-6.9687,-6.9692,-6.9696,-7.0145,-7.0151,0,0,0,0,0,0,-6.9409,-6.9424,-6.9616,-6.9621,-6.9464,-6.9527,-6.9536,-6.9588,-6.9623,-6.9623,-6.9565,-6.9554,-6.9647,-6.9659,-6.9672,-6.9879,-6.9688,-6.9697,-6.9702,-7.0139,-7.0147,-7.0154,0,0,0,0,0,0,-6.9404,-6.9427,-6.9612,-6.952,-6.9542,-6.9538,-6.9597,-6.9593,-6.9625,-6.9631,-6.9628,-6.96,-6.9643,-6.9659,-6.9789,-6.988,-6.9701,-6.9709,-7.0131,-7.0141,-7.015,-7.0295,0,0,0,0,0,0,-6.9397,-6.9426,-6.9493,-6.9523,-6.9547,-6.9729,-6.9602,-6.9599,-6.9641,-6.9628,-6.9662,-6.9662,-6.9639,-6.9776,-6.9798,-6.9889,-6.9716,-7.0123,-7.0136,-7.0147,-7.0282,-7.0308,-7.0331,0,0,0,0,0,-6.9387,-6.953,-6.9497,-6.9521,-6.9632,-6.9735,-6.9748,-6.972,-6.9649,-6.9716,-6.972,-6.9661,-6.9867,-6.979,-6.9814,-6.9909,-7.0117,-7.0132,-7.0146,-7.0271,-7.0303,-7.0331,0,0,0,0,0,0,-6.9511,-6.9533,-6.9497,-6.9654,-6.9694,-6.9716,-6.98,-6.9755,-6.9815,-6.98,-6.9762,-6.977,-6.9908,-6.9922,-6.9836,-7.0081,-6.998,-7.0,-7.0067,-7.0098,-7.0122,-7.0115,-6.9724,0,0,0,0,0,-6.9556,-6.9639,-6.9654,-6.9791,-6.9813,-6.9804,-6.9847,-6.9822,-6.9861,-6.9876,-6.9889,-6.9928,-7.0001,-7.005,-7.0118,-7.0284,-7.0289,-7.0361,-7.0386,-7.0406,-7.0423,-7.0511,-7.0543,-7.0202,-7.0202,-7.0202,0,0,-6.9651,-6.9674,-6.9728,-6.9816,-6.9844,-6.9929,-6.9818,-6.9913,-6.9975,-6.989,-7.0013,-7.0025,-7.0066,-7.0214,-7.028,-7.0229,-7.0519,-7.0425,-7.0441,-7.0447,-7.0529,-7.0561,-7.059,-7.0212,-7.021,-7.0208,0,0,-6.9866,-6.9893,-7.0009,-7.0039,-7.0083,-7.0076,-7.0104,-7.0134,-7.0138,-7.0262,-7.0199,-7.0273,-7.04,-7.0431,-7.0464,-7.0692,-7.064,-7.0716,-7.0843,-7.0929,-7.0956,-7.0979,-7.1059,-7.1088,-7.0733,-7.0733,-7.0734,0,-6.9978,-7.0105,-7.0074,-7.0174,-7.0214,-7.0143,-7.0259,-7.0289,-7.0353,-7.0381,-7.0325,-7.0483,-7.0505,-7.0659,-7.0715,-7.0744,-7.0774,-7.071,-7.0954,-7.0978,-7.0999,-7.1075,-7.1105,-7.0742,-7.0741,-7.074,-7.0739,0,-7.024,-7.0329,-7.0417,-7.0481,-7.0531,-7.0639,-7.0623,-7.0678,-7.0649,-7.0647,-7.0773,-7.0798,-7.0869,-7.0904,-7.0876,-7.1054,-7.1021,-7.0961,-7.0858,-7.1041,-7.1111,-7.114,-7.0755,-7.0752,-7.0749,-7.0747,0,0,-7.0534,-7.058,-7.0613,-7.064,-7.0683,-7.0751,-7.0855,-7.0926,-7.0972,-7.1019,-7.1104,-7.1214,-7.1158,-7.1195,-7.117,-7.1246,-7.1423,-7.1175,-7.1175,-7.1219,-7.1619,-7.1663,-7.1697,-7.139,-7.1395,-7.1399,-7.1615,0,-7.0748,-7.0929,-7.0905,-7.1078,-7.1159,-7.1093,-7.1183,-7.1219,-7.1221,-7.1289,-7.129,-7.1368,-7.1289,-7.1311,-7.1383,-7.1386,-7.1502,-7.1371,-7.1467,-7.147,-7.1457,-7.1734,-7.1781,-7.1983,-7.1642,-7.1647,-7.165,0,-7.1022,-7.1079,-7.1262,-7.1291,-7.1324,-7.1406,-7.1469,-7.1535,-7.1574,-7.157,-7.1612,-7.1574,-7.1677,-7.1574,-7.1715,-7.1626,-7.1664,-7.1672,-7.1679,-7.1685,-7.157,-7.1746,-7.2047,-7.2077,-7.1693,-7.169,-7.1687,0,-7.1217,-7.1339,-7.1463,-7.1489,-7.1528,-7.1587,-7.1605,-7.1638,-7.1682,-7.1737,-7.1764,-7.183,-7.1866,-7.1917,-7.1897,-7.1824,-7.2041,-7.1937,-7.2039,-7.2039,-7.2085,-7.2082,-7.2395,-7.2114,-7.2113,-7.2113,-7.2112,0,-7.1457,-7.1571,-7.1551,-7.1627,-7.1752,-7.1722,-7.1846,-7.1856,-7.1887,-7.1963,-7.191,-7.1982,-7.1952,-7.2022,-7.2008,-7.2125,-7.2142,-7.214,-7.2135,-7.2144,-7.2144,-7.2167,-7.2152,-7.2121,-7.2119,-7.2118,-7.2116,0,-7.1694,-7.1686,-7.1817,-7.1843,-7.1852,-7.1943,-7.1964,-7.2035,-7.2033,-7.2131,-7.2152,-7.2148,-7.2228,-7.2214,-7.2302,-7.2292,-7.2439,-7.2417,-7.2426,-7.242,-7.2522,-7.2512,-7.2858,-7.2902,-7.2595,-7.2598,-7.26,0,-7.1848,-7.1934,-7.1969,-7.2017,-7.204,-7.2118,-7.2162,-7.2137,-7.2185,-7.2236,-7.2301,-7.2376,-7.2435,-7.2565,-7.257,-7.2637,-7.2615,-7.2732,-7.2625,-7.2631,-7.2614,-7.2609,-7.2616,-7.2752,-7.2756,-7.2759,-7.2761,0,-7.212,-7.2112,-7.2179,-7.2245,-7.23,-7.235,-7.2395,-7.2437,-7.2415,-7.2472,-7.2554,-7.26,-7.269,-7.2765,-7.2828,-7.2845,-7.28,-7.2795,-7.2822,-7.2831,-7.2832,-7.2831,-7.2482,-7.2787,-7.2784,-7.2782,-7.2781,-7.278,-7.2319,-7.2391,-7.2428,-7.2504,-7.2535,-7.2579,-7.2647,-7.2654,-7.2721,-7.2793,-7.2774,-7.2866,-7.2902,-7.2982,-7.3007,-7.3078,-7.3034,-7.3073,-7.3083,-7.3093,-7.3104,-7.2823,-7.3089,-7.3089,-7.3088,-7.3087,-7.3087,0,-7.2586,-7.2607,-7.2677,-7.2742,-7.2802,-7.2756,-7.2803,-7.2856,-7.2938,-7.2976,-7.3035,-7.3129,-7.3201,-7.3212,-7.3281,-7.3336,-7.3316,-7.3354,-7.3349,-7.3353,-7.314,-7.3109,-7.3369,-7.3369,-7.3369,-7.3369,-7.3369,-7.3368,-7.2733,-7.2853,-7.2849,-7.2984,-7.3003,-7.3093,-7.3124,-7.3164,-7.3194,-7.3301,-7.3361,-7.3368,-7.3395,-7.3465,-7.353,-7.3531,-7.3558,-7.3604,-7.3597,-7.3397,-7.3369,-7.3342,-7.3312,-7.361,-7.3611,-7.3804,-7.3806,-7.3807]},{"header":{"parameterUnit":"m.s-1","parameterCategory":1,"la1":30.2991,"la2":30.254,"lo1":-89.0895,"lo2":-89.0444,"dy":0.0017,"dx":0.0017,"nx":28,"ny":28,"refTime":"2024-06-17T03:00:00:Z","depth":0,"parameterNumber":3,"parameterNumberName":"V-component_of_WINDS"},"data":[0,0,0,0,0,0,0,0,0,0,0,0,0,0,0,0,0,0,0,0,0,0,0,0,0,0,0,0,0,0,0,0,0,0,0,0,0,0,0,0,0,0,0,0,0,0,0,0,0,0,0,0,0,0,0,0,0,0,1.7597,1.7598,0,1.7643,1.7644,1.7645,1.7668,1.7668,1.7668,1.7668,1.7717,1.7718,1.7719,0,0,0,0,0,0,0,0,0,0,0,0,0,1.7531,1.7532,1.7597,1.7598,1.7598,1.7643,1.7644,1.7645,1.7668,1.7668,1.7668,1.7668,1.7716,1.7718,1.7719,0,0,0,0,0,0,0,0,0,0,0,0,0,1.7567,1.7533,1.7597,1.7616,1.7618,1.7643,1.7644,1.7645,1.7668,1.7668,1.7668,1.7668,1.7716,1.7718,1.772,1.7731,0,0,1.7725,1.7726,0,0,0,0,0,0,0,0,1.7565,1.7569,1.7612,1.7614,1.7617,1.765,1.7639,1.7674,1.7668,1.7649,1.7668,1.7668,1.7695,1.7698,1.7707,1.7733,1.7735,1.7726,1.7727,1.7728,1.7728,0,0,0,0,0,0,0,1.7562,1.7568,1.7616,1.7613,1.7616,1.7622,1.7627,1.7645,1.7671,1.7651,1.7653,1.7658,1.7696,1.7705,1.7708,1.7736,1.7726,1.7727,1.7728,1.7729,1.7774,1.7775,0,0,0,0,0,0,1.7557,1.7565,1.7614,1.7617,1.759,1.7623,1.7629,1.7639,1.7671,1.7676,1.7658,1.7659,1.7702,1.7706,1.771,1.7726,1.7728,1.7729,1.773,1.7774,1.7774,1.7775,0,0,0,0,0,0,1.7555,1.7561,1.7612,1.7592,1.7599,1.7624,1.7636,1.764,1.7649,1.7676,1.7681,1.7662,1.7702,1.7707,1.7726,1.7728,1.773,1.7732,1.7774,1.7774,1.7774,1.7757,0,0,0,0,0,0,1.7553,1.756,1.7564,1.7592,1.76,1.7626,1.7636,1.7641,1.7653,1.7654,1.7682,1.7686,1.7702,1.7723,1.7727,1.773,1.7733,1.7774,1.7774,1.7774,1.7757,1.7756,1.7755,0,0,0,0,0,1.7551,1.7557,1.7564,1.757,1.7605,1.7626,1.7631,1.7649,1.7653,1.7657,1.7675,1.7685,1.7727,1.7724,1.773,1.7733,1.7774,1.7774,1.7774,1.7758,1.7756,1.7755,0,0,0,0,0,0,1.753,1.7561,1.7569,1.7585,1.7603,1.763,1.7637,1.7647,1.7665,1.7666,1.7688,1.7694,1.771,1.7724,1.772,1.7746,1.7752,1.7753,1.7737,1.7736,1.7735,1.7731,1.7735,0,0,0,0,0,1.7527,1.7541,1.7568,1.7579,1.7588,1.7611,1.7621,1.7633,1.7653,1.766,1.7679,1.7698,1.7716,1.7727,1.7744,1.7759,1.7766,1.7765,1.7764,1.7763,1.7764,1.7774,1.7774,1.7775,1.7775,1.7775,0,0,1.7521,1.754,1.7548,1.7576,1.7591,1.7606,1.7617,1.7632,1.7643,1.7663,1.7681,1.7696,1.7718,1.7735,1.7744,1.7747,1.7765,1.7763,1.7762,1.7764,1.7774,1.7774,1.7774,1.7775,1.7775,1.7775,0,0,1.7518,1.7534,1.7545,1.7561,1.7584,1.7599,1.7602,1.7628,1.7638,1.7657,1.7672,1.7686,1.7716,1.7732,1.7743,1.7748,1.7758,1.7753,1.7748,1.7757,1.7757,1.7757,1.7759,1.776,1.7753,1.7753,1.7753,0,1.7509,1.7531,1.755,1.7564,1.7576,1.7595,1.7607,1.7621,1.7648,1.7657,1.766,1.7698,1.7714,1.7736,1.7737,1.7746,1.775,1.775,1.7755,1.7756,1.7756,1.7758,1.7759,1.7753,1.7753,1.7753,1.7753,0,1.7518,1.7533,1.754,1.7566,1.7579,1.7592,1.7613,1.7624,1.7636,1.7651,1.767,1.7691,1.7713,1.7719,1.7731,1.7743,1.7744,1.7751,1.7757,1.7755,1.7757,1.7758,1.7751,1.7752,1.7752,1.7752,0,0,1.7503,1.7539,1.7542,1.7554,1.7581,1.7594,1.7608,1.763,1.7639,1.7658,1.7671,1.7695,1.7702,1.7716,1.7729,1.7738,1.7741,1.7744,1.7745,1.7743,1.7756,1.775,1.7751,1.7748,1.7748,1.7748,1.7754,0,1.7504,1.753,1.7548,1.7567,1.7582,1.76,1.7613,1.7631,1.7646,1.7661,1.7678,1.7695,1.7703,1.7711,1.772,1.7738,1.7743,1.7738,1.7761,1.7762,1.7755,1.7752,1.7746,1.7751,1.7755,1.7755,1.7755,0,1.7509,1.7527,1.7547,1.7574,1.7581,1.7592,1.7613,1.7627,1.7649,1.7659,1.7675,1.7689,1.7706,1.771,1.7734,1.773,1.774,1.7751,1.7751,1.7754,1.7758,1.7755,1.7752,1.7753,1.7757,1.7757,1.7757,0,1.7496,1.7526,1.7542,1.7552,1.7583,1.759,1.7604,1.7625,1.7637,1.7657,1.7665,1.7686,1.7697,1.7714,1.7733,1.7734,1.7755,1.7761,1.7765,1.7765,1.7769,1.7768,1.7767,1.7775,1.7775,1.7775,1.7775,0,1.7496,1.7508,1.7537,1.7547,1.7561,1.7582,1.7596,1.7611,1.763,1.7644,1.7661,1.7674,1.7699,1.7715,1.7731,1.7749,1.7754,1.7763,1.7767,1.7761,1.776,1.7769,1.7769,1.7775,1.7775,1.7775,1.7775,0,1.7484,1.7504,1.7523,1.7551,1.7558,1.7567,1.7592,1.7603,1.7618,1.7636,1.7641,1.7666,1.7686,1.7708,1.7735,1.7745,1.7763,1.7768,1.7755,1.7757,1.776,1.776,1.7765,1.7767,1.7773,1.7773,1.7773,0,1.7482,1.7492,1.7521,1.7531,1.7544,1.7561,1.7573,1.7594,1.7607,1.7633,1.7641,1.7662,1.768,1.7711,1.7732,1.7753,1.776,1.776,1.7763,1.7757,1.776,1.7759,1.7761,1.7759,1.7759,1.7759,1.7759,0,1.7478,1.7487,1.7504,1.7525,1.7539,1.7557,1.7575,1.7582,1.7607,1.7621,1.7641,1.7655,1.7683,1.7704,1.7728,1.7743,1.7755,1.7758,1.776,1.7754,1.7746,1.7751,1.7753,1.7757,1.7758,1.7758,1.7758,1.7758,1.7471,1.7481,1.7503,1.7522,1.7538,1.7554,1.7566,1.7583,1.7601,1.7625,1.7637,1.7657,1.768,1.7713,1.7727,1.7744,1.7748,1.7751,1.7752,1.7752,1.7751,1.7744,1.7749,1.7749,1.7749,1.7749,1.7749,0,1.7468,1.7483,1.75,1.7525,1.754,1.755,1.7571,1.7583,1.76,1.762,1.7637,1.7661,1.7682,1.7705,1.7727,1.7737,1.7743,1.7742,1.7742,1.7745,1.7746,1.7742,1.7736,1.7736,1.7736,1.7736,1.7736,1.7736,1.7468,1.7485,1.7497,1.7523,1.7538,1.7558,1.7569,1.7585,1.7601,1.7627,1.7644,1.7659,1.768,1.7704,1.7724,1.773,1.7738,1.7735,1.7743,1.7744,1.7745,1.7746,1.7742,1.7736,1.7736,1.7741,1.7741,1.7741]}]]